Погода в Яньтае

Китай     37°30′28″N   121°18′33″E
темп.,
°C
ветер,
м/с
пор.,
м/с
влажн.,
%
обл.,
%
осадки,
мм/ч
давл.,
гПа
погр.,
м
21 апреля, ср
ср2123:00+14ююз3435100 0.0 102078
02:00+13ю2236100 0.0 102020
05:00+12ю2235100 0.0 102034
08:00+15ююв2329100 0.0 1020188
11:00+19ююв5722100 0.0 1020773
14:00+19ю5722100 0.0 1019834
17:00+12ю2351100 0.1 1020182
20:00+13вюв41052100 0.1 1020555
22 апреля, чт
чт2223:00+12в2456100 0.0 1019152
02:00+12в2357100 0.0 1018106
05:00+12вюв4957100 0.1 1017401
08:00+11юв41180100 0.8 1016500
11:00+13юв51386100 1.4 1015673
14:00+13ююв61491100 7.6 1013616
17:00+13юв41293100 3.4 1013605
20:00+13ююв4994100 5.3 1014353
23 апреля, пт
пт2323:00+13юв2794100 0.8 1015358
02:00+13ююв3694100 2.5 1015312
05:00+12ююв2496100 0.4 1016236
08:00+12вюв1393100 0.7 1017365
11:00+12ссв2291100 0.1 1018327
14:00+12св118996 0.2 1018279
17:00+13в3386100 0.1 1018256
20:00+11в4891100 0.1 1021324
24 апреля, сб
сб2423:00+11в61195100 0.5 1022429
02:00+10всв51197100 1.1 1023358
05:00+10всв4996100 0.4 1024341
08:00+12св488761 0.4 1026377
11:00+14всв57647 0.0 1026564
14:00+15ссв466413 0.0 1025589
17:00+14ссв236613 0.0 1024343
20:00+13зсз12740 0.0 102562
25 апреля, вс
вс2523:00+12зюз11757 0.0 102418
02:00+11ссз228094 0.0 102452
05:00+10ссз127340 0.0 102360
08:00+12ссз3449100 0.0 1023334
11:00+12с3340100 0.0 1022400
14:00+14с3332100 0.0 1021526
17:00+12св3436100 0.0 1020345
20:00+11ссв0049100 0.0 102182